Location: Unspecified
(0.0000°N, 0.0000°E)
Time: 18:28:45
(UTC+02:00)

Milstar 3 - Visible Passes

Search period start: 29 June 2016 00:00
Search period end: 09 July 2016 00:00
Orbit: 1095 x 5150 km, 28.2° (Epoch: 05 June)

Date Brightness Start Highest point End Pass type
(mag) Time Alt. Az. Time Alt. Az. Time Alt. Az.
29 Jun 6.5 01:41:32 10° W 02:38:34 - SE 01:55:40 31° WSW visible
29 Jun 5.8 05:12:08 26° S 05:12:08 26° S 05:23:46 10° SE visible
29 Jun 5.8 21:44:09 10° NW 22:06:40 80° NNE 22:23:59 41° ESE visible
30 Jun 6.1 00:34:26 10° WNW 00:57:31 52° WSW 00:57:31 52° WSW visible
30 Jun 6.1 04:14:06 23° SSE 04:14:06 23° SSE 04:20:54 10° SE visible
30 Jun 5.4 06:47:40 13° SW 07:00:06 27° S 07:09:01 10° ESE visible
30 Jun 5.8 20:41:52 10° NW 21:00:49 64° NNE 21:25:52 21° ESE visible
30 Jun 5.8 23:29:08 10° WNW 23:56:29 68° SSW 23:59:25 66° S visible
01 Jul 6.5 02:27:49 10° W 03:16:04 13° SE 03:17:43 10° SE visible
01 Jul 5.7 05:49:38 24° SSW 05:55:15 26° S 06:06:16 10° SE visible
01 Jul 5.8 22:25:14 10° WNW 22:49:19 81° SSW 23:01:20 54° SE visible
02 Jul 6.5 01:18:56 10° W 02:18:02 - SE 01:34:54 34° WSW visible
02 Jul 5.9 04:51:36 27° S 04:51:36 27° S 05:03:14 10° SE visible
02 Jul 5.0 07:27:51 10° SW 07:42:45 35° SSE 07:51:13 10° E visible
02 Jul 5.7 21:22:22 10° NW 21:42:57 84° NNE 22:03:17 33° ESE visible
03 Jul 6.1 00:12:08 10° W 00:36:50 52° SW 00:36:50 52° SW visible
03 Jul 6.2 03:53:34 22° SSE 03:53:34 22° SSE 03:59:52 10° SE visible
03 Jul 5.4 06:27:08 18° SW 06:38:47 31° S 06:48:50 10° ESE visible
03 Jul 5.6 20:20:19 10° NW 20:37:34 68° NE 21:05:15 15° ESE visible
03 Jul 5.9 23:07:06 10° WNW 23:32:33 64° SSW 23:38:48 58° S visible
04 Jul 6.6 02:05:04 10° WSW 02:55:32 11° SE 02:56:07 10° SE visible
04 Jul 5.7 05:29:06 28° SSW 05:33:43 30° S 05:45:59 10° ESE visible
04 Jul 5.7 22:03:27 10° WNW 22:25:32 76° SSW 22:40:47 44° SE visible
05 Jul 6.4 00:56:35 10° W 01:14:21 36° SW 01:14:21 36° SW visible
05 Jul 5.9 04:31:05 29° SSE 04:31:05 29° SSE 04:42:39 10° SE visible
05 Jul 5.0 07:04:39 11° SW 07:21:27 42° SSE 07:30:48 10° E visible
05 Jul 5.6 21:00:47 10° WNW 21:19:30 89° NNE 21:42:47 26° ESE visible
05 Jul 6.1 23:50:07 10° W 00:16:21 50° SSW 00:16:21 50° SSW visible
06 Jul 6.3 03:33:03 21° SE 03:33:03 21° SE 03:38:49 10° SE visible
06 Jul 5.4 06:06:37 24° SSW 06:17:20 36° SSE 06:28:29 10° ESE visible
06 Jul 5.5 19:58:54 10° NW 20:14:33 72° NE 20:44:36 10° ESE visible
06 Jul 5.9 22:45:20 10° WNW 23:08:52 60° SSW 23:18:21 50° SSE visible
07 Jul 6.7 01:42:31 10° WSW 02:35:03 - SE 01:51:55 22° WSW visible
07 Jul 5.7 05:08:37 32° S 05:12:01 33° S 05:25:34 10° ESE visible
07 Jul 5.7 21:41:51 10° WNW 22:02:02 71° SSW 22:20:22 35° SE visible
08 Jul 6.4 00:34:30 10° W 00:53:57 37° SW 00:53:57 37° SW visible
08 Jul 6.0 04:10:37 30° SSE 04:10:37 30° SSE 04:22:00 10° ESE visible
08 Jul 4.9 06:44:11 17° SW 06:59:59 49° SSE 07:10:16 10° E visible
08 Jul 5.5 20:39:22 10° WNW 20:56:21 86° SSW 21:22:23 19° ESE visible
